Погода в Уманцево

Россия / Республика Калмыкия     47°44′01″N   44°16′19″E
темп.,
°C
ветер,
м/с
пор.,
м/с
влажн.,
%
обл.,
%
осадки,
мм/ч
давл.,
гПа
погр.,
м
16 мая, вс
вс1600:00+18юв5143987 0.0 1014232
03:00+17юв51247100 0.0 1014193
06:00+17юв41050100 0.0 1014169
09:00+24вюв61036100 0.0 1014494
12:00+30юв81222100 0.0 10132173
15:00+31юв71222100 0.0 10113029
18:00+27юв71430100 0.0 1011399
21:00+23юв71633100 0.0 1011343
17 мая, пн
пн1700:00+19вюв516415 0.0 1011301
03:00+18в6164069 0.0 1010269
06:00+18в616457 0.0 1010306
09:00+27юв9152810 0.0 1010922
12:00+31юв11141876 0.0 10102572
15:00+32юв10121856 0.0 10092934
18:00+28юв814235 0.0 1009501
21:00+22вюв514290 0.0 1010239
18 мая, вт
вт1800:00+19в51332100 0.0 1009201
03:00+18в4833100 0.0 1008106
06:00+18в3540100 0.0 100894
09:00+24юв343295 0.0 1008478
12:00+28юв5826100 0.0 10081689
15:00+29ю5826100 0.0 10071469
18:00+23зсз5851100 0.0 1008220
21:00+19зсз71173100 0.0 1009283
19 мая, ср
ср1900:00+18з6118261 0.0 1009310
03:00+17з51079100 0.1 1009272
06:00+17з5977100 0.0 1011332
09:00+21з6858100 0.0 1012936
12:00+21зюз7858100 0.1 10131157
15:00+22зюз895116 1.1 10141871
18:00+19з910590 0.3 10151057
21:00+15зюз49730 0.3 1017281
20 мая, чт
чт2000:00+14з48790 0.0 1017159
03:00+12зюз34800 0.0 101856
06:00+14юз22765 0.0 1019108
09:00+19ююв33471 0.0 1018861
12:00+23юв23308 0.0 10181505
15:00+25вюв44295 0.0 10161735
18:00+25вюв46380 0.0 1016445
21:00+20всв594766 0.0 1015137